User: anonymous   Login
Location: Wildlife_Club
(35.6000°N, 81.4330°W)
Time: 04:44:04
(UTC-04:00)
Language:

Cosmos 1782 - Orbit

View from above orbital plane
View from above orbital plane
View from above satellite
View from above satellite

Ground track
Ground track

The orbit data is extracted from the following two-line orbital elements,

1 16986U 86074A   14296.71435470  .00004028  00000-0  29360-3 0  8837
2 16986 082.5072 340.9502 0013069 049.6457 310.5907 15.03427399525283
Epoch (UTC): 23 October 2014 17:08:40
Eccentricity: 0.0013069
inclination: 82.5072°
perigee height: 547 km
apogee height: 565 km
right ascension of ascending node: 340.9502°
argument of perigee: 49.6457°
revolutions per day: 15.03427399
mean anomaly at epoch: 310.5907°
orbit number at epoch: 52528

The dashed part of the orbit path shows where the satellite is in the earth's shadow,  

DLR